Location: Asheville, NC
(35.6000°N, 82.5500°W)
Time: 00:02:49
(UTC-05:00)

OTV 5 (USA 277) - Pass Details

Date: 11 December 2017
Orbit: 404 x 417 km, 43.0° (Epoch: 07 September)

Event Time Altitude Azimuth Distance (km) Brightness Sun altitude
Rises 18:16:10 0° 298° (WNW) 2,351 ? -11.7°
Reaches altitude 10° 18:18:30 10° 311° (NW) 1,488 ? -12.2°
Maximum altitude 18:21:24 27° 11° (N) 841 ? -12.7°
Enters shadow 18:22:39 21° 47° (NE) 988 ? -13.0°
